Hourly Data Report for September 01, 2015

All times are specified in Local Standard Time (LST). Add 1 hour to adjust for Daylight Saving Time where and when it is observed.

TORONTO INTL A
ONTARIO

43°40'36.000" N
79°37'50.000" W
173.40 m
6158731
71624
YYZ

Download Data

Hourly Data (September 2015)
Hourly Data Report for September 1, 2015
Temp Definition
°C
Dew Point Temp Definition
°C
Rel Hum Definition
%
Wind Dir Definition
10's deg

Wind Spd Definition
km/h
Visibility Definition
km
Stn Press Definition
kPa
Hmdx Definition


Wind Chill Definition


Weather Definition


TIME
00:00 Legend Double Dagger 19.5 17.7 89 34 11 24.1 99.68     LegendNANA
01:00 Legend Double Dagger 18.0 17.4 96 34 13 1.2 99.70     Fog
02:00 Legend Double Dagger 18.1 17.6 97 36 10 1.6 99.72     Fog
03:00 Legend Double Dagger 18.3 17.8 97 2 8 3.6 99.74     Fog
04:00 Legend Double Dagger 18.5 17.9 96 33 5 3.2 99.73     Fog
05:00 Legend Double Dagger 18.5 17.7 95 36 2 3.6 99.75     Fog
06:00 Legend Double Dagger 18.0 17.4 96 29 5 2.4 99.79     Fog
07:00 Legend Double Dagger 18.1 17.5 96 29 8 4.8 99.79     Fog
08:00 Legend Double Dagger 20.6 17.5 82 27 6 19.3 99.80 26   LegendNANA
09:00 Legend Double Dagger 22.8 17.8 73 27 9 19.3 99.80 29   LegendNANA
10:00 Legend Double Dagger 25.1 18.9 68 24 8 19.3 99.79 32   Clear
11:00 Legend Double Dagger 26.8 18.8 61 22 11 19.3 99.75 33   LegendNANA
12:00 Legend Double Dagger 26.0 19.3 66 14 14 16.1 99.71 33   LegendNANA
13:00 Legend Double Dagger 27.6 19.8 62 15 12 16.1 99.66 35   Clear
14:00 Legend Double Dagger 27.3 19.5 62 15 15 16.1 99.64 34   LegendNANA
15:00 Legend Double Dagger 28.4 19.8 59 14 14 16.1 99.60 36   LegendNANA
16:00 Legend Double Dagger 28.9 20.0 58 17 13 16.1 99.56 36   Clear
17:00 Legend Double Dagger 27.8 19.2 59 15 16 16.1 99.55 35   LegendNANA
18:00 Legend Double Dagger 26.8 19.3 63 14 9 16.1 99.56 34   LegendNANA
19:00 Legend Double Dagger 26.2 18.2 61 26 11 16.1 99.57 32   Clear
20:00 Legend Double Dagger 25.7 18.5 64 28 9 16.1 99.62 32   LegendNANA
21:00 Legend Double Dagger 24.0 18.7 72 28 13 16.1 99.65 31   LegendNANA
22:00 Legend Double Dagger 23.5 18.0 71 30 9 19.3 99.63 30   Clear
23:00 Legend Double Dagger 22.0 17.9 77 29 8 19.3 99.66 28   LegendNANA

Notes on Data Quality.

Legend

  • E = Estimated
  • M = Missing
  • NA = Not Available
  • ‡ = Partner data that is not subject to review by the National Climate Archives
Date modified: